Weather reports worldwide

Advertisment
Bologna/Borgo Panigale, Italy (16140): temperature & dewpoint: 13.04.2019 01:00:00 - 19.04.2019 01:00:00 (CEST)Bologna/Borgo Panigale, Italy (16140): wind speed: 13.04.2019 01:00:00 - 19.04.2019 01:00:00 (CEST)Bologna/Borgo Panigale, Italy (16140): wind direction: 13.04.2019 01:00:00 - 19.04.2019 01:00:00 (CEST)Bologna/Borgo Panigale, Italy (16140): reduced air pressure: 13.04.2019 01:00:00 - 19.04.2019 01:00:00 (CEST)Bologna/Borgo Panigale, Italy (16140): visibility: 13.04.2019 01:00:00 - 19.04.2019 01:00:00 (CEST)Bologna/Borgo Panigale, Italy (16140): precipitation: 13.04.2019 01:00:00 - 19.04.2019 01:00:00 (CEST)
Date & Time tt [°C] td [°C] ff [km/h] ff [kn] dd ppp [hPa] vv [km] rr [mm]
19.04.2019 01:00:00 10,0 5,0 2 1 - - 10 -
19.04.2019 00:00:00 10,0 5,0 4 2 ESE - 10 -
18.04.2019 23:00:00 11,1 4,1 2 1 - 1026,5 10 0,0
18.04.2019 22:00:00 13,0 5,0 9 5 ESE - 10 -
18.04.2019 21:00:00 15,0 5,0 13 7 E - 10 -
18.04.2019 20:00:00 16,3 4,7 15 8 E 1025,0 10 -
18.04.2019 19:00:00 18,0 4,0 18 10 E - 10 -
18.04.2019 18:00:00 20,0 5,0 16 9 E - 10 -
18.04.2019 17:00:00 19,8 4,7 18 10 E 1024,3 10 0,0
18.04.2019 16:00:00 20,0 5,0 16 9 E - 10 -
18.04.2019 15:00:00 20,0 6,0 16 9 ESE - 10 -
18.04.2019 14:00:00 19,8 6,5 13 7 ESE 1024,6 10 -
18.04.2019 13:00:00 19,0 7,0 13 7 ENE - 10 -
18.04.2019 12:00:00 18,0 6,0 13 7 E - 10 -
18.04.2019 11:00:00 16,4 7,0 15 8 E 1025,1 10 0,0
18.04.2019 10:00:00 15,0 7,0 5 3 ENE - 10 -
18.04.2019 09:00:00 13,0 6,0 4 2 - - 10 -
18.04.2019 08:00:00 10,2 5,3 5 3 SSW 1024,4 10 -
18.04.2019 07:00:00 7,0 4,0 5 3 S - 10 -
18.04.2019 06:00:00 8,0 4,0 4 2 - - 10 -
18.04.2019 05:00:00 10,0 5,0 8 4 SSE - 10 -
18.04.2019 04:00:00 10,0 5,0 8 4 SSW - 10 -
18.04.2019 03:00:00 11,0 5,0 8 4 SSW - 10 -
18.04.2019 02:00:00 11,0 4,7 2 1 - 1022,5 10 -
18.04.2019 01:00:00 11,0 5,0 9 5 SSW - 10 -
18.04.2019 00:00:00 12,0 6,0 13 7 SSW - 10 -
17.04.2019 23:00:00 12,7 5,9 9 5 S 1021,3 10 0,0
17.04.2019 22:00:00 15,0 6,0 4 2 SSW - 10 -
17.04.2019 21:00:00 13,0 6,0 5 3 E - 10 -
17.04.2019 20:00:00 16,7 4,7 4 2 ENE 1019,5 10 -
17.04.2019 19:00:00 20,0 3,0 8 4 NE - 10 -
17.04.2019 18:00:00 21,0 6,0 4 2 - - 10 -
17.04.2019 17:00:00 20,7 4,4 9 5 NNE 1019,6 10 0,0
17.04.2019 16:00:00 20,0 5,0 11 6 NNE - 10 -
17.04.2019 15:00:00 20,0 5,0 13 7 NE - 10 -
17.04.2019 14:00:00 19,5 5,9 8 4 - 1020,4 10 -
17.04.2019 13:00:00 19,0 6,0 8 4 NW - 10 -
17.04.2019 12:00:00 18,0 8,0 8 4 NW - 10 -
17.04.2019 11:00:00 17,0 7,3 9 5 NW 1021,1 10 0,0
17.04.2019 10:00:00 15,0 8,0 5 3 WSW - 10 -
17.04.2019 09:00:00 12,0 6,0 8 4 SW - 10 -
17.04.2019 08:00:00 10,7 5,8 13 7 SSW 1020,7 10 -
17.04.2019 07:00:00 9,0 5,0 13 7 SSW - 10 -
17.04.2019 06:00:00 9,0 5,0 13 7 SSW - 10 -
17.04.2019 05:00:00 8,9 5,3 11 6 SSW 1019,9 10 0,0
17.04.2019 04:00:00 10,0 5,0 13 7 SSW - 10 -
17.04.2019 03:00:00 10,0 6,0 11 6 SSW - 10 -
17.04.2019 02:00:00 10,1 5,6 9 5 SSW 1019,9 10 -
17.04.2019 01:00:00 11,0 5,0 13 7 SSW - 10 -
17.04.2019 00:00:00 11,0 5,0 9 5 SSW - 10 -
16.04.2019 23:00:00 12,8 4,8 4 2 - 1019,6 10 0,0
16.04.2019 22:00:00 11,0 4,0 8 4 SE - 10 -
16.04.2019 21:00:00 13,0 4,0 13 7 ESE - 10 -
16.04.2019 20:00:00 14,8 3,9 16 9 ESE 1018,7 10 -
16.04.2019 19:00:00 18,0 5,0 18 10 E - 10 -
16.04.2019 18:00:00 18,0 4,0 13 7 E - 10 -
16.04.2019 17:00:00 18,9 4,8 13 7 E 1018,0 10 0,0
16.04.2019 16:00:00 19,0 4,0 13 7 E - 10 -
16.04.2019 15:00:00 19,0 5,0 13 7 E - 10 -
16.04.2019 14:00:00 18,4 5,6 13 7 E 1019,1 10 -
16.04.2019 13:00:00 18,0 6,0 11 6 ENE - 10 -
16.04.2019 12:00:00 17,0 8,0 5 3 - - 10 -
16.04.2019 11:00:00 15,2 7,3 4 2 - 1020,3 10 0,0
16.04.2019 10:00:00 13,0 6,0 8 4 S - 10 -
16.04.2019 09:00:00 10,0 5,0 13 7 S - 10 -
16.04.2019 08:00:00 8,3 4,5 15 8 SSW 1020,2 10 -
16.04.2019 07:00:00 7,0 4,0 13 7 SSW - 10 -
16.04.2019 06:00:00 7,0 4,0 13 7 SSW - 10 -
16.04.2019 05:00:00 7,0 4,5 13 7 SSW 1019,5 10 0,0
16.04.2019 04:00:00 - - - - - - - -
16.04.2019 03:00:00 8,0 5,0 11 6 SSW - 10 -
16.04.2019 02:00:00 8,3 5,5 13 7 SSW 1020,2 10 -
16.04.2019 01:00:00 9,0 6,0 16 9 SSW - 10 -
16.04.2019 00:00:00 9,0 6,0 11 6 SSW - 10 -
15.04.2019 23:00:00 9,8 6,8 11 6 SSW 1019,8 10 0,0
15.04.2019 22:00:00 11,0 7,0 11 6 SSW - 10 -
15.04.2019 21:00:00 11,0 4,0 2 1 S - 10 -
15.04.2019 20:00:00 12,9 5,4 9 5 ESE 1019,0 10 -
15.04.2019 19:00:00 17,0 5,0 8 4 NE - 10 -
15.04.2019 18:00:00 17,0 5,0 11 6 NNE - 10 -
15.04.2019 17:00:00 17,1 6,3 9 5 N 1018,8 10 0,0
15.04.2019 16:00:00 17,0 6,0 5 3 ENE - 10 -
15.04.2019 15:00:00 15,0 7,0 8 4 NNE - 10 -
15.04.2019 14:00:00 15,3 6,8 11 6 N 1019,9 10 -
15.04.2019 13:00:00 16,0 7,0 11 6 NNE - 10 -
15.04.2019 12:00:00 14,0 7,0 9 5 N - 10 -
15.04.2019 11:00:00 13,0 7,0 11 6 NNW - 10 -
15.04.2019 10:00:00 11,0 8,0 13 7 WNW - 8 -
15.04.2019 09:00:00 10,0 8,0 13 7 WNW - 7 -
15.04.2019 08:00:00 8,7 7,2 13 7 W 1019,3 6 -
15.04.2019 07:00:00 7,0 6,0 8 4 W - 4,0 -
15.04.2019 06:00:00 8,0 7,0 11 6 W - 6 -
15.04.2019 05:00:00 8,5 7,0 13 7 W 1017,8 6 0,0
15.04.2019 04:00:00 9,0 7,0 15 8 W - 6 -
15.04.2019 03:00:00 9,0 7,0 16 9 W - 6 -
15.04.2019 02:00:00 8,8 7,7 16 9 W 1016,9 4,0 -
15.04.2019 01:00:00 9,0 8,0 13 7 W - 4,0 -
15.04.2019 00:00:00 9,0 8,0 11 6 WSW - 6 -
14.04.2019 23:00:00 9,7 7,0 9 5 W 1015,5 10 0,0
14.04.2019 22:00:00 10,0 6,0 4 2 - - 10 -
14.04.2019 21:00:00 10,0 7,0 5 3 NNE - 10 -
14.04.2019 20:00:00 10,9 6,7 5 3 NNE 1013,0 10 -
14.04.2019 19:00:00 11,0 6,0 11 6 NE - 10 -
14.04.2019 18:00:00 12,0 7,0 15 8 ENE - 10 -
14.04.2019 17:00:00 11,3 6,6 13 7 ENE 1011,8 10 0,0
14.04.2019 16:00:00 11,0 9,0 11 6 E - 10 -
14.04.2019 15:00:00 11,0 8,0 16 9 E - 8 -
14.04.2019 14:00:00 10,8 8,4 11 6 E 1011,8 8 -
14.04.2019 13:00:00 9,0 8,0 5 3 W - 9 -
14.04.2019 12:00:00 9,0 6,0 5 3 SW - 9 -
14.04.2019 11:00:00 9,1 5,9 8 4 E 1012,3 10 0,0
14.04.2019 10:00:00 8,0 6,0 8 4 E - 10 -
14.04.2019 09:00:00 7,0 6,0 9 5 NE - 10 -
14.04.2019 08:00:00 6,7 4,7 4 2 - 1011,7 10 -
14.04.2019 07:00:00 6,0 4,0 9 5 S - 10 -
14.04.2019 06:00:00 5,0 3,0 5 3 SSW - 10 -
14.04.2019 05:00:00 5,6 3,6 5 3 S 1011,5 10 0,0
14.04.2019 04:00:00 5,0 4,0 8 4 SSE - 10 -
14.04.2019 03:00:00 6,0 4,0 9 5 SSW - 10 -
14.04.2019 02:00:00 5,9 4,1 5 3 S 1012,7 10 -
14.04.2019 01:00:00 7,0 5,0 9 5 S - 10 -
14.04.2019 00:00:00 6,0 5,0 5 3 S - 10 -
13.04.2019 23:00:00 6,9 4,8 4 2 SSE 1014,0 10 0,0
13.04.2019 22:00:00 7,0 6,0 2 1 S - 10 -
13.04.2019 21:00:00 9,0 6,0 2 1 - - 10 -
13.04.2019 20:00:00 10,8 5,9 4 2 SSW 1013,6 10 -
13.04.2019 19:00:00 12,0 6,0 5 3 S - 10 -
13.04.2019 18:00:00 12,0 6,0 8 4 SSW - 10 -
13.04.2019 17:00:00 12,0 5,8 8 4 SSE 1014,1 10 0,0
13.04.2019 16:00:00 11,0 6,0 4 2 S - 10 -
13.04.2019 15:00:00 11,0 5,0 8 4 SW - 10 -
13.04.2019 14:00:00 10,9 5,7 8 4 SW 1015,3 10 -
13.04.2019 13:00:00 11,0 7,0 4 2 - - 10 -
13.04.2019 12:00:00 11,0 7,0 5 3 NW - 10 -
13.04.2019 11:00:00 10,4 7,2 5 3 NW 1015,6 10 0,0
13.04.2019 10:00:00 10,0 7,0 4 2 - - 10 -
13.04.2019 09:00:00 9,0 8,0 4 2 - - 7 -
13.04.2019 08:00:00 8,8 7,8 4 2 - 1014,8 7 -
13.04.2019 07:00:00 8,0 8,0 4 2 WNW - 8 -
13.04.2019 06:00:00 8,0 7,0 2 1 - - 10 -
13.04.2019 05:00:00 8,5 7,5 4 2 - 1014,4 10 0,0
13.04.2019 04:00:00 8,0 8,0 2 1 - - 10 -
13.04.2019 03:00:00 9,0 8,0 5 3 E - 10 -
13.04.2019 02:00:00 9,3 8,6 4 2 - 1014,9 5 -
13.04.2019 01:00:00 9,0 8,0 4 2 - - 7 -

tt = temperature
td = dewpoint
ff = wind speed
dd = wind direction
ppp = reduced air pressure
vv = visibility
rr = precipitation

Next stations